Location: Bothwell
(42.3833°S, 147.0000°E)
Time: 21:06:24
(UTC+11:00)

DIWATA 2B (PO-101) - Pass Details

Date: 25 September 2022
Orbit: 582 x 598 km, 98.0° (Epoch: 25 November)

Event Time Altitude Azimuth Distance (km) Brightness Sun altitude
Rises 03:54:55 0° 178° (S) 2,850 ? -22.7°
Reaches altitude 10° 03:57:18 10° 189° (S) 1,940 ? -22.3°
Enters shadow 03:59:29 23° 215° (SW) 1,277 ? -22.0°
